Regional Weather Roundup
Issued by NWS Sioux Falls, SD

Home | Current Version | Previous Version | Text Only | Print | Product List | Glossary Off
Versions: 1 2 3 4 5 6 7 8 9 10 11 12 13 14 15 16 17 18 19 20 21 22 23 24 25 26 27 28 29 30 31 32 33 34 35 36 37 38 39 40 41 42 43 44 45 46 47 48 49 50

000
ASUS43 KFSD 281202
RWRFSD

WEATHER ROUNDUP FOR SE SOUTH DAKOTA/SW MINNESOTA/NW IOWA
NATIONAL WEATHER SERVICE SIOUX FALLS SD
700 AM CDT SUN MAY 28 2017

NOTE: "FAIR" INDICATES FEW OR NO CLOUDS BELOW 12,000 FEET WITH NO
SIGNIFICANT WEATHER AND OR OBSTRUCTIONS TO VISIBILITY.


SDZ038>040-050-052>070-281300-
SOUTHEAST SOUTH DAKOTA

CITY           SKY/WX    TMP DP  RH WIND       PRES   REMARKS
BROOKINGS      SUNNY     48  46  93 CALM      29.84S
CHAMBERLAIN    PTCLDY    53  47  78 W12       29.90S
6HR MIN TEMP:  49; 6HR MAX TEMP:  59;

HURON          CLEAR     48  45  89 W6        29.86R
6HR MIN TEMP:  43; 6HR MAX TEMP:  54;

MADISON        FAIR      50  50 100 NW7       29.85R
MITCHELL       CLEAR     50  46  86 NW5       29.87R
6HR MIN TEMP:  47; 6HR MAX TEMP:  59;

SIOUX FALLS    SUNNY     53  48  83 W3        29.85R
6HR MIN TEMP:  51; 6HR MAX TEMP:  57;

WINNER         FAIR      55  45  68 W12       29.93S
YANKTON        CLEAR     54  48  80 W7        29.89S
$$

MNZ071-072-080-081-089-090-097-098-281300-
SOUTHWEST MINNESOTA

CITY           SKY/WX    TMP DP  RH WIND       PRES   REMARKS
FAIRMONT       SUNNY     57  49  74 NW16      29.81R
JACKSON        SUNNY     54  46  76 NW15      29.83S
MARSHALL       SUNNY     54  47  77 W8        29.82R
6HR MIN TEMP:  51; 6HR MAX TEMP:  59;

MONTEVIDEO     SUNNY     55  46  71 N8        29.80S
PIPESTONE      SUNNY     52  43  71 NW3       29.84R
REDWOOD FALLS  SUNNY     54  46  74 W8        29.80R
TRACY          SUNNY     55  48  75 W5        29.83R
WINDOM         SUNNY     55  46  71 NW7       29.83R
WORTHINGTON    SUNNY     54  47  77 NW9       29.85R
$$

IAZ001>003-012>014-020>022-031-032-NEZ013-014-SDZ071-281300-
NORTHWEST IOWA

CITY           SKY/WX    TMP DP  RH WIND       PRES   REMARKS
CHEROKEE       SUNNY     51  51 100 SW3       29.86R
DENISON        SUNNY     54  52  94 W5        29.87S
ESTHERVILLE    SUNNY     55  51  86 W16       29.82R
LE MARS        SUNNY     54  50  87 W7        29.87S
ORANGE CITY    SUNNY     52  50  93 W6        29.86S
SHELDON        SUNNY     52  48  87 W3        29.84S
SIOUX CITY     SUNNY     54  49  83 NW6       29.88R
6HR MIN TEMP:  48; 6HR MAX TEMP:  57; 6HR PCP: TRACE;

SPENCER        SUNNY     54  51  90 W7        29.84R
6HR MIN TEMP:  48; 6HR MAX TEMP:  56;

STORM LAKE     SUNNY     54  50  87 W13       29.85R
$$

ABBREVIATIONS USED IN REMARKS
   TC - TEMPERATURE IN CELSIUS
  WCI - WIND CHILL INDEX
   HX - HEAT INDEX
  VSB - VISIBILITY




USA.gov is the U.S. government's official web portal to all federal, state and local government web resources and services.